ESR886 RCTP-RKPC

Flight info

Callsign ESR886
Flight time N/A
Altitude 35000
Route PIANO L3 SALMI Y743 BOLUT Y741 ATOTI Y722 SOSDO
Aircraft B738/M-SDFGHIRWY/LB1

Departure

Time N/A
Airport Taiwan Taoyuan International Airport (RCTP)

Arrival

Time 2026-05-03 20:27
Airport Jeju International Airport (RKPC)
Time Latitude Longitude Altitude Speed Heading
2026-05-03 20:15 33.28218 126.63112 10391 ft 331 kts 17°
2026-05-03 20:15 33.30239 126.64326 10044 ft 320 kts 17°
2026-05-03 20:15 33.32179 126.65510 9820 ft 305 kts 17°
2026-05-03 20:15 33.34034 126.66656 9434 ft 297 kts 17°
2026-05-03 20:16 33.35829 126.67771 9183 ft 284 kts 16°
2026-05-03 20:16 33.37541 126.68829 8980 ft 272 kts 16°
2026-05-03 20:16 33.39213 126.69857 8623 ft 268 kts 16°
2026-05-03 20:16 33.40868 126.70874 8375 ft 267 kts 16°
2026-05-03 20:17 33.42530 126.71891 8080 ft 268 kts 16°
2026-05-03 20:17 33.44167 126.72898 7842 ft 265 kts 17°
2026-05-03 20:17 33.45796 126.73912 7603 ft 262 kts 17°
2026-05-03 20:17 33.47410 126.74913 7336 ft 261 kts 17°
2026-05-03 20:18 33.49023 126.75903 7071 ft 260 kts 17°
2026-05-03 20:18 33.50628 126.76884 6819 ft 259 kts 17°
2026-05-03 20:18 33.52217 126.77864 6550 ft 255 kts 18°
2026-05-03 20:18 33.53783 126.78831 6237 ft 248 kts 18°
2026-05-03 20:19 33.55291 126.79761 5964 ft 241 kts 18°
2026-05-03 20:19 33.56763 126.80647 5653 ft 235 kts 18°
2026-05-03 20:19 33.58202 126.81457 5435 ft 222 kts 11°
2026-05-03 20:19 33.59732 126.81666 4786 ft 220 kts 348°
2026-05-03 20:20 33.61080 126.80995 4538 ft 209 kts 323°
2026-05-03 20:20 33.62118 126.79823 4290 ft 201 kts 313°
2026-05-03 20:20 33.63018 126.78598 4162 ft 190 kts 313°
2026-05-03 20:20 33.63870 126.77439 4123 ft 180 kts 312°
2026-05-03 20:21 33.64424 126.76099 4034 ft 188 kts 279°
2026-05-03 20:21 33.64130 126.74539 3963 ft 197 kts 252°
2026-05-03 20:21 33.63430 126.73113 3911 ft 198 kts 245°
2026-05-03 20:21 33.62714 126.71741 3710 ft 192 kts 247°
2026-05-03 20:22 33.62017 126.70374 3527 ft 193 kts 247°
2026-05-03 20:22 33.61328 126.69016 3295 ft 188 kts 247°
2026-05-03 20:22 33.60657 126.67697 3096 ft 181 kts 248°
2026-05-03 20:22 33.60020 126.66442 2890 ft 171 kts 248°
2026-05-03 20:23 33.59408 126.65236 2730 ft 169 kts 248°
2026-05-03 20:23 33.59009 126.64429 2624 ft 169 kts 248°
2026-05-03 20:23 33.58393 126.63210 2513 ft 174 kts 246°
2026-05-03 20:23 33.57751 126.61965 2287 ft 176 kts 245°
2026-05-03 20:24 33.57122 126.60739 2087 ft 167 kts 245°
2026-05-03 20:24 33.56531 126.59591 1858 ft 156 kts 245°
2026-05-03 20:24 33.55982 126.58524 1730 ft 147 kts 246°
2026-05-03 20:24 33.55450 126.57487 1562 ft 145 kts 245°
2026-05-03 20:25 33.54945 126.56456 1374 ft 143 kts 245°
2026-05-03 20:25 33.54418 126.55446 1207 ft 142 kts 242°
2026-05-03 20:25 33.53879 126.54418 1036 ft 148 kts 243°
2026-05-03 20:25 33.53333 126.53361 841 ft 148 kts 242°
2026-05-03 20:26 33.52801 126.52323 653 ft 148 kts 243°
2026-05-03 20:26 33.52271 126.51293 417 ft 143 kts 244°
2026-05-03 20:26 33.51739 126.50255 258 ft 147 kts 242°
2026-05-03 20:26 33.51215 126.49229 122 ft 135 kts 238°
2026-05-03 20:27 33.50832 126.48486 127 ft 74 kts 239°
2026-05-03 20:27 33.50653 126.48222 122 ft 23 kts 213°
2026-05-03 20:27 33.50572 126.48168 122 ft 0 kts 146°
2026-05-03 20:28 33.50517 126.48178 122 ft 2 kts 116°
2026-05-03 20:28 33.50518 126.48254 119 ft 14 kts 60°
2026-05-03 20:29 33.50570 126.48352 120 ft 14 kts 60°
2026-05-03 20:29 33.50619 126.48449 120 ft 14 kts 58°
2026-05-03 20:29 33.50615 126.48516 123 ft 12 kts 150°
2026-05-03 20:29 33.50524 126.48579 115 ft 12 kts 148°
2026-05-03 20:30 33.50529 126.48630 115 ft 7 kts 56°
2026-05-03 20:30 33.50563 126.48693 117 ft 13 kts 57°
2026-05-03 20:30 33.50610 126.48785 114 ft 17 kts 58°
2026-05-03 20:31 33.50648 126.48859 113 ft 16 kts 58°
2026-05-03 20:31 33.50707 126.48973 117 ft 16 kts 58°
2026-05-03 20:31 33.50709 126.49007 116 ft 5 kts 126°
2026-05-03 20:31 33.50659 126.49045 111 ft 11 kts 148°
2026-05-03 20:32 33.50635 126.49063 111 ft 0 kts 147°